ZAREMBO AK US current weather conditions

sailwx.info

Wind from 236 at 5 knots gusting 10

Air temperature 25.0° C
Dewpoint 10.1° C

Last reported at 2019-Jul-23 00:55 UTC.
Time now 2019-Jul-23 02:42 UTC

Location: N 56°18' W 132°51'.
View on Google Maps.

See reports from other nearby stations

  
Tides and Currents Weather Stations Pressure Air Temp Water Temp Dewpoint Dewpoint Depression Visibility Wind Speed Wind Dir Waves Ship Positions
date/time (UTC)wind fromknots sea level pressurealtimeterstation pressurevisibilityair tempwater tempwave heightnotes
2019-Jul-23 00:55 236 5 gusting 10 25.0
2019-Jul-22 23:55 223 6 gusting 13 25.0
2019-Jul-22 22:55 264 2 gusting 11 26.7
2019-Jul-22 21:55 266 4 gusting 11 25.6
2019-Jul-22 20:55 028 3 gusting 8 23.9
2019-Jul-22 19:55 258 5 gusting 9 22.8
2019-Jul-22 18:55 077 6 gusting 12 22.2
2019-Jul-22 17:55 086 6 gusting 9 21.1
2019-Jul-22 16:55 354 1 gusting 4 20.0
2019-Jul-22 15:55 346 0 gusting 3 18.3
2019-Jul-22 14:55 255 1 gusting 3 15.6
2019-Jul-22 13:55 15.6
2019-Jul-22 12:55 284 0 gusting 3 13.9
2019-Jul-22 11:55 127 2 gusting 3 14.4
2019-Jul-22 10:55 14.4
2019-Jul-22 09:55 347 2 gusting 4 15.0
2019-Jul-22 08:55 274 1 gusting 6 16.1
2019-Jul-22 07:55 163 1 gusting 3 16.1
2019-Jul-22 06:55 129 1 gusting 4 16.7
2019-Jul-22 05:55 356 0 gusting 2 16.7
2019-Jul-22 04:55 074 2 gusting 5 18.3
2019-Jul-22 03:55 030 1 gusting 5 20.0
2019-Jul-22 02:55 293 1 gusting 8 22.8
2019-Jul-22 01:55 253 5 gusting 9 21.7
2019-Jul-22 00:55 233 4 gusting 8 23.3
2019-Jul-21 23:55 036 1 gusting 7 24.4
2019-Jul-21 22:55 257 4 gusting 7 21.7
2019-Jul-21 21:55 224 6 gusting 8 19.4
2019-Jul-21 20:55 21.7
2019-Jul-21 19:55 076 3 gusting 11 21.1
2019-Jul-21 18:55 065 4 gusting 9 19.4
2019-Jul-21 17:55 080 6 gusting 9 17.8
2019-Jul-21 16:55 083 5 gusting 8 16.7
2019-Jul-21 15:55 084 5 gusting 9 15.6
2019-Jul-21 14:55 089 6 gusting 9 13.3
2019-Jul-21 13:55 090 2 gusting 6 12.2
2019-Jul-21 12:55 094 4 gusting 7 11.1
2019-Jul-21 11:55 102 4 gusting 6 10.6
2019-Jul-21 10:55 097 2 gusting 8 11.1
2019-Jul-21 09:55 097 5 gusting 6 11.7
2019-Jul-21 08:55 102 3 gusting 5 11.7
2019-Jul-21 07:55 12.2
2019-Jul-21 06:55 075 1 gusting 2 12.2
2019-Jul-21 05:55 142 0 gusting 1 12.2
2019-Jul-21 04:55 13.3
2019-Jul-21 03:55 073 1 gusting 4 13.9
2019-Jul-21 02:55 340 0 gusting 3 15.0